When you browse on this site, cookies collect data to enhance your experience and personalize the content and advertising you see.
Visit our Privacy Policy to learn more. By continuing to use the site, you agree to this use of cookies and data.
  • In Österreich
  • Länderverzeichnis
  • Für 7 Tage
  • Wassertemperatur
  • Wetterkarte
  • News
  • Widgets
  • user-avatar
    Anmelden

    Stündliche Wetter Rosas

    Heute, 23 September, Montag

    Zeit Temperatur Niederschläge Wind Luftdruck Luftfeuchtigkeit
    00:00 +15°C° 0.1 mm 1 m/S 618 mmHg 88%
    01:00 +15°C° 0 mm 1 m/S 618 mmHg 87%
    02:00 +15°C° 0 mm 1 m/S 618 mmHg 87%
    03:00 +15°C° 0 mm 1 m/S 617 mmHg 87%
    04:00 +15°C° 0 mm 1 m/S 617 mmHg 87%
    05:00 +15°C° 0 mm 1 m/S 618 mmHg 86%
    06:00 +16°C° 0 mm 1 m/S 618 mmHg 84%
    07:00 +18°C° 0 mm 1 m/S 619 mmHg 83%
    08:00 +20°C° 0 mm 1 m/S 620 mmHg 74%
    09:00 +22°C° 0 mm 1 m/S 621 mmHg 65%
    10:00 +25°C° 0 mm 1 m/S 622 mmHg 56%
    11:00 +25°C° 0.2 mm 1 m/S 621 mmHg 54%
    12:00 +26°C° 0.2 mm 2 m/S 621 mmHg 52%
    13:00 +26°C° 0.2 mm 2 m/S 620 mmHg 49%
    14:00 +25°C° 0.5 mm 2 m/S 620 mmHg 57%
    15:00 +24°C° 0.5 mm 1 m/S 619 mmHg 65%
    16:00 +23°C° 0.5 mm 1 m/S 618 mmHg 73%
    17:00 +21°C° 0.7 mm 1 m/S 618 mmHg 79%
    18:00 +19°C° 0.7 mm 1 m/S 617 mmHg 85%
    19:00 +18°C° 0.7 mm 1 m/S 617 mmHg 91%
    20:00 +16°C° 0 mm 1 m/S 617 mmHg 90%
    21:00 +16°C° 0 mm 1 m/S 618 mmHg 88%
    22:00 +15°C° 0 mm 1 m/S 618 mmHg 87%
    23:00 +16°C° 0 mm 1 m/S 618 mmHg 86%

    Morgen, 24 September, Dienstag

    Zeit Temperatur Niederschläge Wind Luftdruck Luftfeuchtigkeit
    00:00 +16°C° 0 mm 1 m/S 618 mmHg 85%
    01:00 +16°C° 0 mm 1 m/S 617 mmHg 85%
    02:00 +16°C° 0 mm 1 m/S 617 mmHg 85%
    03:00 +15°C° 0 mm 1 m/S 617 mmHg 85%
    04:00 +15°C° 0 mm 1 m/S 617 mmHg 85%
    05:00 +16°C° 0 mm 1 m/S 617 mmHg 84%
    06:00 +16°C° 0 mm 1 m/S 618 mmHg 83%
    07:00 +18°C° 0 mm 1 m/S 619 mmHg 82%
    08:00 +20°C° 0.1 mm 1 m/S 620 mmHg 76%
    09:00 +22°C° 0.1 mm 1 m/S 621 mmHg 70%
    10:00 +23°C° 0.1 mm 1 m/S 622 mmHg 64%
    11:00 +24°C° 0.4 mm 1 m/S 621 mmHg 63%
    12:00 +24°C° 0.4 mm 1 m/S 621 mmHg 63%
    13:00 +25°C° 0.4 mm 2 m/S 620 mmHg 62%
    14:00 +24°C° 0.8 mm 1 m/S 619 mmHg 67%
    15:00 +23°C° 0.8 mm 1 m/S 619 mmHg 72%
    16:00 +22°C° 0.8 mm 1 m/S 618 mmHg 76%
    17:00 +21°C° 0.6 mm 1 m/S 618 mmHg 80%
    18:00 +20°C° 0.6 mm 1 m/S 618 mmHg 84%
    19:00 +18°C° 0.6 mm 1 m/S 618 mmHg 88%
    20:00 +18°C° 0.4 mm 1 m/S 618 mmHg 88%
    21:00 +18°C° 0.4 mm 1 m/S 618 mmHg 88%
    22:00 +16°C° 0.4 mm 1 m/S 618 mmHg 88%
    23:00 +16°C° 0.3 mm 1 m/S 618 mmHg 88%

    übermorgen, 25 September, Mittwoch

    Zeit Temperatur Niederschläge Wind Luftdruck Luftfeuchtigkeit
    00:00 +16°C° 0.3 mm 1 m/S 618 mmHg 88%
    01:00 +16°C° 0.3 mm 1 m/S 618 mmHg 88%
    02:00 +16°C° 0.1 mm 1 m/S 618 mmHg 88%
    03:00 +16°C° 0.1 mm 1 m/S 617 mmHg 88%
    04:00 +15°C° 0.1 mm 1 m/S 617 mmHg 89%
    05:00 +16°C° 0 mm 1 m/S 618 mmHg 87%
    06:00 +16°C° 0 mm 1 m/S 618 mmHg 86%
    07:00 +16°C° 0 mm 0 m/S 619 mmHg 84%
    08:00 +20°C° 0.1 mm 1 m/S 620 mmHg 78%
    09:00 +22°C° 0.1 mm 1 m/S 621 mmHg 71%
    10:00 +24°C° 0.1 mm 1 m/S 622 mmHg 65%
    11:00 +24°C° 0.7 mm 1 m/S 621 mmHg 65%
    12:00 +25°C° 0.7 mm 1 m/S 621 mmHg 66%
    13:00 +25°C° 0.7 mm 1 m/S 620 mmHg 66%
    14:00 +24°C° 1.5 mm 1 m/S 619 mmHg 72%
    15:00 +23°C° 1.5 mm 1 m/S 619 mmHg 78%
    16:00 +22°C° 1.5 mm 1 m/S 618 mmHg 83%
    17:00 +21°C° 1.5 mm 1 m/S 618 mmHg 87%
    18:00 +20°C° 1.5 mm 1 m/S 618 mmHg 91%
    19:00 +18°C° 1.5 mm 1 m/S 617 mmHg 95%
    20:00 +18°C° 1.1 mm 1 m/S 618 mmHg 94%
    21:00 +18°C° 1.1 mm 1 m/S 618 mmHg 94%
    22:00 +18°C° 1.1 mm 1 m/S 619 mmHg 93%
    23:00 +18°C° 0.2 mm 1 m/S 618 mmHg 93%

    26 September, Donnerstag

    Zeit Temperatur Niederschläge Wind Luftdruck Luftfeuchtigkeit
    00:00 +16°C° 0.2 mm 1 m/S 618 mmHg 93%
    01:00 +16°C° 0.2 mm 1 m/S 618 mmHg 92%
    02:00 +16°C° 0 mm 1 m/S 617 mmHg 92%
    03:00 +16°C° 0 mm 1 m/S 617 mmHg 92%
    04:00 +16°C° 0 mm 1 m/S 617 mmHg 91%
    05:00 +16°C° 0 mm 1 m/S 618 mmHg 90%
    06:00 +18°C° 0 mm 1 m/S 618 mmHg 88%
    07:00 +18°C° 0 mm 1 m/S 619 mmHg 87%
    08:00 +20°C° 0 mm 1 m/S 620 mmHg 79%
    09:00 +22°C° 0 mm 1 m/S 620 mmHg 72%
    10:00 +24°C° 0 mm 1 m/S 621 mmHg 64%
    11:00 +24°C° 0.5 mm 1 m/S 621 mmHg 65%
    12:00 +24°C° 0.5 mm 1 m/S 620 mmHg 65%
    13:00 +24°C° 0.5 mm 1 m/S 620 mmHg 66%
    14:00 +24°C° 0.6 mm 1 m/S 619 mmHg 68%
    15:00 +23°C° 0.6 mm 1 m/S 619 mmHg 69%
    16:00 +23°C° 0.6 mm 2 m/S 618 mmHg 71%
    17:00 +21°C° 0.9 mm 1 m/S 618 mmHg 78%
    18:00 +20°C° 0.9 mm 1 m/S 617 mmHg 85%
    19:00 +18°C° 0.9 mm 1 m/S 617 mmHg 92%
    20:00 +16°C° 0.3 mm 1 m/S 617 mmHg 91%
    21:00 +16°C° 0.3 mm 1 m/S 618 mmHg 91%
    22:00 +16°C° 0.3 mm 1 m/S 618 mmHg 90%
    23:00 +15°C° 0 mm 1 m/S 617 mmHg 90%

    27 September, Freitag

    Zeit Temperatur Niederschläge Wind Luftdruck Luftfeuchtigkeit
    00:00 +15°C° 0 mm 1 m/S 617 mmHg 90%
    01:00 +15°C° 0 mm 1 m/S 617 mmHg 89%
    02:00 +15°C° 0 mm 1 m/S 617 mmHg 89%
    03:00 +15°C° 0 mm 1 m/S 617 mmHg 88%
    04:00 +15°C° 0 mm 1 m/S 616 mmHg 88%
    05:00 +15°C° 0 mm 1 m/S 617 mmHg 86%
    06:00 +16°C° 0 mm 1 m/S 618 mmHg 85%
    07:00 +18°C° 0 mm 1 m/S 618 mmHg 83%
    08:00 +20°C° 0 mm 1 m/S 619 mmHg 76%
    09:00 +22°C° 0 mm 1 m/S 620 mmHg 69%
    10:00 +24°C° 0 mm 1 m/S 621 mmHg 62%
    11:00 +24°C° 0.4 mm 1 m/S 621 mmHg 61%
    12:00 +25°C° 0.4 mm 1 m/S 620 mmHg 61%
    13:00 +25°C° 0.4 mm 1 m/S 620 mmHg 61%
    14:00 +25°C° 0.8 mm 1 m/S 619 mmHg 65%
    15:00 +24°C° 0.8 mm 1 m/S 618 mmHg 69%
    16:00 +23°C° 0.8 mm 1 m/S 618 mmHg 73%
    17:00 +21°C° 0.8 mm 1 m/S 617 mmHg 79%
    18:00 +20°C° 0.8 mm 1 m/S 617 mmHg 86%
    19:00 +18°C° 0.8 mm 1 m/S 617 mmHg 92%
    20:00 +16°C° 0.2 mm 1 m/S 617 mmHg 92%
    21:00 +16°C° 0.2 mm 1 m/S 617 mmHg 92%
    22:00 +16°C° 0.2 mm 1 m/S 617 mmHg 92%
    23:00 +15°C° 0.1 mm 1 m/S 617 mmHg 91%

    28 September, Samstag

    Zeit Temperatur Niederschläge Wind Luftdruck Luftfeuchtigkeit
    00:00 +15°C° 0.1 mm 1 m/S 617 mmHg 91%
    01:00 +15°C° 0.1 mm 1 m/S 617 mmHg 91%
    02:00 +15°C° 0.3 mm 1 m/S 617 mmHg 91%
    03:00 +15°C° 0.3 mm 1 m/S 616 mmHg 91%
    04:00 +15°C° 0.3 mm 1 m/S 616 mmHg 91%
    05:00 +15°C° 0 mm 1 m/S 617 mmHg 89%
    06:00 +16°C° 0 mm 1 m/S 617 mmHg 87%
    07:00 +16°C° 0 mm 0 m/S 618 mmHg 85%
    08:00 +20°C° 0.1 mm 1 m/S 619 mmHg 79%
    09:00 +22°C° 0.1 mm 1 m/S 620 mmHg 73%
    10:00 +24°C° 0.1 mm 1 m/S 620 mmHg 67%
    11:00 +24°C° 0.6 mm 1 m/S 620 mmHg 68%
    12:00 +24°C° 0.6 mm 1 m/S 619 mmHg 69%
    13:00 +25°C° 0.6 mm 1 m/S 619 mmHg 69%
    14:00 +23°C° 1.7 mm 1 m/S 618 mmHg 75%
    15:00 +22°C° 1.7 mm 1 m/S 617 mmHg 81%
    16:00 +21°C° 1.7 mm 1 m/S 617 mmHg 87%
    17:00 +20°C° 1 mm 1 m/S 616 mmHg 89%
    18:00 +19°C° 1 mm 1 m/S 616 mmHg 92%
    19:00 +18°C° 1 mm 1 m/S 616 mmHg 95%
    20:00 +18°C° 0.4 mm 1 m/S 617 mmHg 94%
    21:00 +15°C° 0.4 mm 0 m/S 617 mmHg 94%
    22:00 +15°C° 0.4 mm 0 m/S 617 mmHg 93%
    23:00 +15°C° 0 mm 0 m/S 617 mmHg 93%
    Mehr zeigen